Regional Weather Roundup
Issued by NWS Kansas City/Pleasant Hill, MO

Home | Current Version | Previous Version | Text Only | Print | Product List | Glossary On
Versions: 1 2 3 4 5 6 7 8 9 10 11 12 13 14 15 16 17 18 19 20 21 22 23 24 25 26 27 28 29 30 31 32 33 34 35 36 37 38 39 40 41 42 43 44 45 46 47 48 49 50
000
ASUS43 KEAX 240510
RWREAX

WEATHER ROUNDUP FOR EASTERN KANSAS AND NORTHWEST MISSOURI
NATIONAL WEATHER SERVICE KANSAS CITY/PLEASANT HILL MO
1200 AM CDT MON JUL 24 2017

KSZ040-057-103>105-MOZ028-029-037-043-240600-
...KANSAS CITY METROPOLITAN AREA...

CITY           SKY/WX    TMP DP  RH WIND       PRES   REMARKS
K.C. INTL      CLEAR     76  70  82 NE9       29.96R
K.C. DOWNTOWN  CLEAR     82  71  69 NE5       29.94R
LEES SUMMIT    CLOUDY    81  74  79 N9        29.96R
OLATHE - IXD   MOCLDY    80  74  81 N7        29.96R
OLATHE - OJC   CLEAR     80  74  81 N5        29.95S
LAWRENCE       CLEAR     80  74  81 N5        29.95R

$$

MOZ001>008-011>017-020>025-030>033-038>040-044>046-053-054-240600-
...NORTHERN AND CENTRAL MISSOURI...

CITY           SKY/WX    TMP DP  RH WIND       PRES   REMARKS
ST. JOSEPH     MOCLDY    72  69  90 N5        29.97R
MOSBY          CLEAR     77  68  73 N6        29.95R
WHITEMAN AFB   CLEAR     78  78 100 W6        29.91F
CLINTON        CLEAR     73  73 100 CALM      29.93S
SEDALIA        CLEAR     77  75  93 SW5       29.93F
WARSAW         NOT AVBL
CHILLICOTHE      N/A     75  66  73 CALM      29.97R
KIRKSVILLE     CLEAR     70  64  81 NE5       29.97S

$$

MOZ041-047>049-056>058-063>065-088>090-097-240600-
...EASTERN AND SOUTHERN MISSOURI...

CITY           SKY/WX    TMP DP  RH WIND       PRES   REMARKS
ST. LOUIS INTL MOCLDY    83  72  69 NW6       29.90R
SPIRIT OF STL  CLEAR     75  74  96 NW8       29.89R
COLUMBIA       CLEAR     77  71  82 NE13      29.91F
JEFFERSON CITY CLEAR     75  73  93 CALM      29.89F
ROLLA          PTCLDY    72  68  87 CALM      29.92F
OSAGE BEACH    CLEAR     74  70  87 CALM      29.93S
SPRINGFIELD    MOCLDY    77  71  82 NW3       29.95R
BRANSON          N/A     75  68  78 CALM      29.97R
JOPLIN         PTCLDY    76  72  87 S3        29.94S
WEST PLAINS    PTCLDY    72  67  84 CALM      29.96R

$$

IAZ060-094-KSZ022-034>040-054-083-096-NEZ052-066-093-240600-
...KANSAS...SOUTHEAST NEBRASKA AND IOWA...

CITY           SKY/WX    TMP DP  RH WIND       PRES   REMARKS
TOPEKA         CLEAR     80  75  84 N6        29.95R
MANHATTAN      CLEAR     81  70  69 NE8       29.96R
EMPORIA        CLEAR     75  73  93 S3        29.95S
CHANUTE        CLEAR     75  71  87 CALM      29.94S
WICHITA        PTCLDY    81  71  71 E5        29.95S
OMAHA          CLEAR     73  61  65 NE7       30.01R
LINCOLN        CLEAR     70  63  78 CALM      30.02R
FALLS CITY     CLEAR     71  65  81 N3        29.98R
LAMONI         CLEAR     68  62  81 NE6       29.99R
DES MOINES     CLEAR     71  60  68 N3        29.98R

$$




USA.gov is the U.S. government's official web portal to all federal, state and local government web resources and services.